Torna al catalogo

DELTA 1 DEB

AttivoSSO
NORAD 26834·DEBRIS·🇺🇸 United States

Lanciato Jun 12, 1975 da Vandenberg Space Force Base

Loading…

Prossimi Passaggi (prossime 24 ore)

TLE

AggiornatoSource: Space-Track

Epoca: Sep 14, 2026, 00:20 UTC

1 26834U 75052KN  26257.01409057 -.00000026  00000-0  31409-4 0  9990
2 26834  99.7111 277.8886 0056246 216.9884 173.4290 13.32963957240066

Traccia DELTA 1 DEB in tempo reale con AllMySat

Download on the App Store